Weather in Pisky

Ukraine / Kharkiv Region     49°58′53″N   37°54′26″E
temp.,
°C
wind,
m/s
gust,
m/s
humid.,
%
clouds,
%
prec.,
mm/h
press.,
hPa
HPBL,
m
13 may, thu
thu1300:00+7ese389257 0.1 1015145
03:00+9se5109680 3.3 1015315
06:00+10ese4898100 2.4 1014264
09:00+13sse468565 2.4 1014680
12:00+17sse466688 0.2 10141448
15:00+19s466221 0.5 10141581
18:00+19sse2568100 0.1 1013399
21:00+14ese2282100 0.1 101416
14 may, fri
fri1400:00+13ese228868 0.0 101416
03:00+12ese339092 0.0 101447
06:00+13e31092100 0.0 1013217
09:00+19se71273100 0.0 1013550
12:00+21sse6868100 0.0 1013857
15:00+22se71268100 0.4 10121062
18:00+22se3973100 0.0 1010383
21:00+19ese4128367 0.0 1010225
15 may, sat
sat1500:00+17s379287 0.0 1010126
03:00+15sw229193 0.0 101111
06:00+15sw2485100 0.0 101298
09:00+19sw456756 0.0 1013498
12:00+22sw565242 0.0 10141219
15:00+23sw56505 0.0 10131759
18:00+22sw356170 0.0 1013305
21:00+17wnw1169100 0.0 101411
16 may, sun
sun1600:00+16ene2273100 0.0 101411
03:00+14e117899 0.0 101411
06:00+15ene228067 0.0 101440
09:00+21ene346480 0.0 1014480
12:00+24ne4453100 0.0 10131158
15:00+24ne5655100 0.0 10121581
18:00+23nne5871100 0.0 1011447
21:00+18ne3483100 0.0 101155
17 may, mon
mon1700:00+16ne477874 0.0 1010113
03:00+15ene487763 0.0 1009132
06:00+16ese4117711 0.0 1009204
09:00+21ese6125731 0.0 1009438
12:00+26ese713473 0.0 10081192
15:00+27se713485 0.0 10082035
18:00+24se510597 0.0 1007367
21:00+19ese3575100 0.0 100872